KT4ATL Weather Reports


Display with metric or nautical units.
time (UTC)temp
F
wind
direction
speed
MPH
gust
MPH
rain 1hr
in
rain 24hr
in
rain mn
in
humidity
%
barometer
mb
20260906122602 74 0.0 0.0 0.00 0.00 0.00 90 1013.9
20260906121522 74 0.0 0.0 0.00 0.00 0.00 90 1013.9
20260906120542 74 0.0 0.0 0.00 0.00 0.00 90 1013.8
20260906115522 73 94 0.0 1.0 0.00 0.00 0.00 91 1013.8
20260906114522 73 265 0.0 1.0 0.00 0.00 0.00 91 1013.7
20260906113522 73 92 0.0 2.0 0.00 0.00 0.00 92 1013.7
20260906112522 73 0.0 0.0 0.00 0.00 0.00 92 1013.6
20260906111523 73 0.0 0.0 0.00 0.00 0.00 93 1013.6
20260906110523 73 96 0.0 0.0 0.00 0.00 0.00 93 1013.6
20260906105523 73 0.0 0.0 0.00 0.00 0.00 92 1013.5
20260906104523 73 0.0 0.0 0.00 0.00 0.00 92 1013.4
20260906103543 73 0.0 0.0 0.00 0.00 0.00 92 1013.4
20260906102523 73 0.0 0.0 0.00 0.00 0.00 92 1013.3
20260906101523 73 178 0.0 0.0 0.00 0.00 0.00 91 1013.4
20260906100524 73 0.0 0.0 0.00 0.00 0.00 91 1013.3
20260906095524 74 0.0 0.0 0.00 0.00 0.00 90 1013.3
20260906094524 74 0.0 0.0 0.00 0.00 0.00 90 1013.5
20260906093524 74 164 0.0 1.0 0.00 0.00 0.00 89 1013.6
20260906092525 74 100 0.0 0.0 0.00 0.00 0.00 89 1013.8
20260906091525 74 0.0 0.0 0.00 0.00 0.00 89 1013.8
20260906090525 74 0.0 0.0 0.00 0.00 0.00 88 1013.6
20260906085525 74 86 0.0 1.0 0.00 0.00 0.00 88 1013.5
20260906084525 74 88 0.0 1.0 0.00 0.00 0.00 87 1013.2
20260906083525 75 86 0.0 1.0 0.00 0.00 0.00 86 1013.1
20260906082525 75 0.0 0.0 0.00 0.00 0.00 85 1013.2
20260906081546 75 62 0.0 1.0 0.00 0.00 0.00 85 1013.3
20260906080526 75 0.0 0.0 0.00 0.00 0.00 84 1013.5
20260906075526 75 63 0.0 1.0 0.00 0.00 0.00 84 1014.0
20260906074546 75 63 1.0 3.0 0.00 0.00 0.00 84 1014.1
20260906073526 75 0.0 0.0 0.00 0.00 0.00 84 1013.6
20260906072547 75 77 0.0 1.0 0.00 0.00 0.00 84 1013.6
20260906071527 75 66 0.0 1.0 0.00 0.00 0.00 84 1013.4
20260906070527 76 60 0.0 2.0 0.00 0.00 0.00 84 1013.6
20260906065607 76 0.0 0.0 0.00 0.00 0.00 83 1013.8
20260906064527 76 84 0.0 0.0 0.00 0.00 0.00 83 1013.6
20260906063528 76 65 0.0 1.0 0.00 0.00 0.00 83 1013.5
20260906062528 76 55 1.0 2.0 0.00 0.00 0.00 83 1013.7
20260906061528 76 0.0 0.0 0.00 0.00 0.00 82 1013.6
20260906060528 77 59 1.0 2.0 0.00 0.00 0.00 81 1013.8
20260906055528 77 55 0.0 0.0 0.00 0.00 0.00 81 1013.8
20260906054549 78 53 1.0 2.0 0.00 0.00 0.00 82 1013.7
20260906053529 78 57 1.0 4.0 0.00 0.00 0.00 82 1013.8
20260906052529 80 70 1.0 4.0 0.00 0.00 0.00 81 1013.9
20260906051529 80 74 1.0 3.0 0.00 0.00 0.00 79 1014.0
20260906050529 81 88 1.0 2.0 0.00 0.00 0.00 77 1013.7
20260906045530 81 69 1.0 3.0 0.00 0.00 0.00 76 1013.3
20260906044530 81 74 1.0 2.0 0.00 0.00 0.00 75 1013.1
20260906043530 80 66 2.0 2.0 0.00 0.00 0.00 75 1013.2
20260906042530 80 90 0.0 1.0 0.00 0.00 0.00 77 1013.1
20260906041517 80 120 0.0 1.0 0.00 0.00 0.00 80 1013.1
20260906040517 79 0.0 0.0 0.00 0.00 0.00 81 1013.3
20260906035517 79 92 0.0 0.0 0.00 0.00 0.00 81 1013.4
20260906034517 79 95 0.0 1.0 0.00 0.00 0.00 80 1013.4
20260906033518 80 120 0.0 1.0 0.00 0.00 0.00 79 1013.3
20260906032537 80 159 0.0 0.0 0.00 0.00 0.00 79 1013.2
20260906031518 80 81 0.0 1.0 0.00 0.00 0.00 78 1013.1
20260906030518 81 75 0.0 1.0 0.00 0.00 0.00 77 1013.1
20260906025518 81 71 0.0 1.0 0.00 0.00 0.00 76 1012.9
20260906024518 81 60 1.0 1.0 0.00 0.00 0.00 76 1012.8
20260906023538 82 0.0 0.0 0.00 0.00 0.00 77 1012.6
20260906022519 82 63 0.0 1.0 0.00 0.00 0.00 76 1012.4
20260906021539 83 62 0.0 1.0 0.00 0.00 0.00 75 1012.3
20260906020519 84 0.0 0.0 0.00 0.00 0.00 74 1012.2
20260906015519 84 0.0 0.0 0.00 0.00 0.00 72 1012.0
20260906014519 85 0.0 0.0 0.00 0.00 0.00 71 1011.9
20260906013540 85 31 0.0 1.0 0.00 0.00 0.00 70 1011.9
20260906012519 85 24 1.0 3.0 0.00 0.00 0.00 70 1012.1
20260906011520 85 32 2.0 4.0 0.00 0.00 0.00 73 1012.2
20260906010520 85 0.0 0.0 0.00 0.00 0.00 73 1012.0
20260906005520 86 0.0 0.0 0.00 0.00 0.00 72 1011.9
20260906004521 87 0.0 0.0 0.00 0.00 0.00 70 1011.8
20260906003521 87 8 0.0 0.0 0.00 0.00 0.00 68 1011.7
20260906002521 88 12 2.0 2.0 0.00 0.00 0.00 67 1011.6
20260906001521 89 16 2.0 2.0 0.00 0.00 0.00 65 1011.6
20260906000521 90 23 2.0 2.0 0.00 0.00 0.00 63 1011.6
20260905235522 91 32 2.0 3.0 0.00 0.00 0.00 61 1011.7
20260905234522 91 33 2.0 3.0 0.00 0.00 0.00 61 1011.6
20260905233522 92 39 2.0 3.0 0.00 0.00 0.00 59 1011.6
20260905232517 93 35 2.0 3.0 0.00 0.00 0.00 58 1011.5
20260905231517 93 36 1.0 3.0 0.00 0.00 0.00 56 1011.4
20260905230517 94 29 2.0 5.0 0.00 0.00 0.00 55 1011.5
20260905225519 94 25 2.0 4.0 0.00 0.00 0.00 53 1011.5
20260905224517 95 31 0.0 3.0 0.00 0.00 0.00 52 1011.5
20260905223517 95 34 1.0 3.0 0.00 0.00 0.00 51 1011.5
20260905222520 95 28 1.0 3.0 0.00 0.00 0.00 50 1011.5
20260905221518 96 22 2.0 4.0 0.00 0.00 0.00 49 1011.4
20260905220518 96 29 1.0 3.0 0.00 0.00 0.00 49 1011.5
20260905215517 96 46 0.0 2.0 0.00 0.00 0.00 49 1011.5
20260905214538 96 29 0.0 3.0 0.00 0.00 0.00 50 1011.5
20260905213518 97 27 1.0 3.0 0.00 0.00 0.00 49 1011.5
20260905212519 97 24 2.0 3.0 0.00 0.00 0.00 50 1011.6
20260905211518 97 31 1.0 3.0 0.00 0.00 0.00 48 1011.6
20260905210518 98 33 1.0 3.0 0.00 0.00 0.00 47 1011.6
20260905205516 98 89 0.0 2.0 0.00 0.00 0.00 48 1011.7
20260905204519 100 22 2.0 4.0 0.00 0.00 0.00 47 1011.8
20260905203540 101 43 0.0 2.0 0.00 0.00 0.00 47 1011.9
20260905202519 102 25 0.0 3.0 0.00 0.00 0.00 46 1012.0
20260905201516 102 328 0.0 2.0 0.00 0.00 0.00 46 1012.1
20260905200517 103 158 0.0 3.0 0.00 0.00 0.00 45 1012.3
20260905195519 103 213 0.0 2.0 0.00 0.00 0.00 46 1012.3
20260905194520 103 6 0.0 4.0 0.00 0.00 0.00 46 1012.5
20260905193517 102 15 1.0 4.0 0.00 0.00 0.00 48 1012.5
20260905192517 102 22 1.0 5.0 0.00 0.00 0.00 47 1012.7
20260905191517 103 44 1.0 5.0 0.00 0.00 0.00 45 1012.8
20260905190517 104 10 1.0 3.0 0.00 0.00 0.00 45 1013.0
20260905185518 103 29 1.0 3.0 0.00 0.00 0.00 46 1013.1
20260905184518 103 226 0.0 2.0 0.00 0.00 0.00 48 1013.2
20260905183519 103 133 1.0 4.0 0.00 0.00 0.00 47 1013.4
20260905182518 103 17 1.0 3.0 0.00 0.00 0.00 48 1013.6
20260905181518 103 35 1.0 3.0 0.00 0.00 0.00 48 1013.6
20260905180559 103 23 1.0 4.0 0.00 0.00 0.00 47 1013.7
20260905175518 103 8 1.0 3.0 0.00 0.00 0.00 48 1013.8
20260905174518 102 235 0.0 2.0 0.00 0.00 0.00 50 1013.9
20260905173559 102 304 1.0 5.0 0.00 0.00 0.00 51 1013.9
20260905172517 102 4 1.0 3.0 0.00 0.00 0.00 50 1014.0
20260905171516 101 33 0.0 3.0 0.00 0.00 0.00 51 1014.1
20260905170519 102 188 1.0 3.0 0.00 0.00 0.00 51 1014.3
20260905165520 100 36 1.0 4.0 0.00 0.00 0.00 51 1014.5
20260905164540 99 56 1.0 3.0 0.00 0.00 0.00 53 1014.6
20260905163517 100 213 1.0 5.0 0.00 0.00 0.00 51 1014.8
20260905162517 100 70 0.0 3.0 0.00 0.00 0.00 52 1014.9
20260905161540 98 40 1.0 4.0 0.00 0.00 0.00 53 1015.0
20260905160517 98 359 0.0 4.0 0.00 0.00 0.00 57 1015.2
20260905155518 96 24 1.0 3.0 0.00 0.00 0.00 58 1015.3
20260905154518 94 15 1.0 4.0 0.00 0.00 0.00 62 1015.4
20260905153518 92 39 0.0 0.0 0.00 0.00 0.00 65 1015.5
20260905152530 90 149 1.0 2.0 0.00 0.00 0.00 66 1015.6
20260905151516 89 23 1.0 2.0 0.00 0.00 0.00 68 1015.7
20260905150516 87 18 2.0 3.0 0.00 0.00 0.00 71 1015.7
20260905145531 85 25 0.0 2.0 0.00 0.00 0.00 76 1015.8
20260905144531 84 0.0 0.0 0.00 0.00 0.00 78 1015.9
20260905143551 82 0.0 0.0 0.00 0.00 0.00 80 1015.9
20260905142531 81 44 0.0 0.0 0.00 0.00 0.00 82 1015.9
20260905141531 80 84 0.0 1.0 0.00 0.00 0.00 83 1016.0
20260905140537 80 73 0.0 1.0 0.00 0.00 0.00 85 1016.1
20260905135517 79 69 0.0 1.0 0.00 0.00 0.00 86 1016.1
20260905134517 79 123 0.0 1.0 0.00 0.00 0.00 87 1016.0
20260905133557 78 170 0.0 0.0 0.00 0.00 0.00 87 1016.1
20260905132518 78 156 0.0 0.0 0.00 0.00 0.00 88 1016.2
20260905131532 77 0.0 0.0 0.00 0.00 0.00 89 1016.2
20260905130517 77 55 0.0 0.0 0.00 0.00 0.00 90 1016.2
20260905125538 76 0.0 0.0 0.00 0.00 0.00 90 1016.2
20260905124518 76 49 0.0 1.0 0.00 0.00 0.00 92 1016.2
20260905123539 75 38 0.0 1.0 0.00 0.00 0.00 94 1016.2